LROP Weather Reports


time (UTC)temp
C
wind
direction
speed
KPH
gust
KPH
rain 1hr
cm
rain 24hr
cm
rain mn
cm
humidity
%
barometer
mb
20260506091802 22 180 8.0 0.0 0.00 0.00 0.00 38 1015.0
20260506090302 22 180 8.0 0.0 0.00 0.00 0.00 38 1015.0
20260506084802 22 110 11.3 0.0 0.00 0.00 0.00 38 1015.0
20260506083302 22 110 11.3 0.0 0.00 0.00 0.00 38 1015.0
20260506081801 21 110 9.7 0.0 0.00 0.00 0.00 46 1015.0
20260506080302 21 110 9.7 0.0 0.00 0.00 0.00 46 1015.0
20260506073302 18 80 8.0 0.0 0.00 0.00 0.00 52 1015.0
20260506071801 17 4.8 0.0 0.00 0.00 0.00 59 1015.0
20260506070301 17 4.8 0.0 0.00 0.00 0.00 59 1015.0
20260506061802 13 70 8.0 0.0 0.00 0.00 0.00 67 1015.0
20260506060303 13 70 8.0 0.0 0.00 0.00 0.00 67 1015.0
20260506050316 11 40 8.0 0.0 0.00 0.00 0.00 77 1015.0
20260506044817 10 40 9.7 0.0 0.00 0.00 0.00 82 1015.0
20260506043306 10 40 9.7 0.0 0.00 0.00 0.00 82 1015.0
20260506041802 8 50 9.7 0.0 0.00 0.00 0.00 87 1015.0
20260506040302 8 50 9.7 0.0 0.00 0.00 0.00 87 1015.0
20260506034802 8 30 9.7 0.0 0.00 0.00 0.00 87 1015.0
20260506033302 8 30 9.7 0.0 0.00 0.00 0.00 87 1015.0
20260506031802 8 30 8.0 0.0 0.00 0.00 0.00 87 1015.0
20260506030301 8 30 8.0 0.0 0.00 0.00 0.00 87 1015.0
20260506024802 8 50 12.9 0.0 0.00 0.00 0.00 87 1014.0
20260506023302 8 50 12.9 0.0 0.00 0.00 0.00 87 1014.0
20260506021802 8 60 11.3 0.0 0.00 0.00 0.00 87 1014.0
20260506020302 8 60 11.3 0.0 0.00 0.00 0.00 87 1014.0
20260506014801 10 40 9.7 0.0 0.00 0.00 0.00 88 1014.0
20260506013302 10 40 9.7 0.0 0.00 0.00 0.00 88 1014.0
20260506011802 10 70 9.7 0.0 0.00 0.00 0.00 88 1014.0
20260506010302 10 70 9.7 0.0 0.00 0.00 0.00 88 1014.0
20260506004802 11 70 9.7 0.0 0.00 0.00 0.00 82 1014.0
20260506003415 11 70 11.3 0.0 0.00 0.00 0.00 88 1014.0
20260506001802 11 70 11.3 0.0 0.00 0.00 0.00 88 1014.0
20260506000302 11 70 11.3 0.0 0.00 0.00 0.00 88 1014.0
20260505234802 12 60 12.9 0.0 0.00 0.00 0.00 82 1014.0
20260505233301 12 60 12.9 0.0 0.00 0.00 0.00 82 1014.0
20260505231802 12 50 8.0 0.0 0.00 0.00 0.00 82 1014.0
20260505230302 12 50 8.0 0.0 0.00 0.00 0.00 82 1014.0
20260505224802 13 50 3.2 0.0 0.00 0.00 0.00 77 1014.0
20260505223302 13 50 3.2 0.0 0.00 0.00 0.00 77 1014.0
20260505221802 13 3.2 0.0 0.00 0.00 0.00 77 1014.0
20260505220302 13 3.2 0.0 0.00 0.00 0.00 77 1014.0
20260505214803 13 30 3.2 0.0 0.00 0.00 0.00 77 1014.0
20260505213302 13 30 3.2 0.0 0.00 0.00 0.00 77 1014.0
20260505211802 13 0 0.0 0.0 0.00 0.00 0.00 77 1014.0
20260505210302 13 0 0.0 0.0 0.00 0.00 0.00 77 1014.0
20260505204804 15 0 0.0 0.0 0.00 0.00 0.00 72 1014.0
20260505203301 15 0 0.0 0.0 0.00 0.00 0.00 72 1014.0
20260505201833 16 60 4.8 0.0 0.00 0.00 0.00 68 1014.0
20260505200302 16 60 4.8 0.0 0.00 0.00 0.00 68 1014.0
20260505194802 16 80 4.8 0.0 0.00 0.00 0.00 63 1014.0
20260505193302 16 80 4.8 0.0 0.00 0.00 0.00 63 1014.0
20260505191802 16 150 4.8 0.0 0.00 0.00 0.00 72 1014.0
20260505190301 16 150 4.8 0.0 0.00 0.00 0.00 72 1014.0
20260505184802 17 150 8.0 0.0 0.00 0.00 0.00 68 1014.0
20260505183302 17 150 8.0 0.0 0.00 0.00 0.00 68 1014.0
20260505181802 17 140 4.8 0.0 0.00 0.00 0.00 68 1013.0
20260505180302 17 140 4.8 0.0 0.00 0.00 0.00 68 1013.0
20260505173301 17 150 8.0 0.0 0.00 0.00 0.00 64 1013.0
20260505171802 18 210 4.8 0.0 0.00 0.00 0.00 64 1013.0
20260505170302 18 210 4.8 0.0 0.00 0.00 0.00 64 1013.0
20260505164802 20 210 8.0 0.0 0.00 0.00 0.00 60 1013.0
20260505163302 20 210 8.0 0.0 0.00 0.00 0.00 60 1013.0
20260505161802 21 230 4.8 0.0 0.00 0.00 0.00 53 1013.0
20260505160302 21 230 4.8 0.0 0.00 0.00 0.00 53 1013.0
20260505153302 22 1.6 0.0 0.00 0.00 0.00 53 1013.0
20260505151810 22 3.2 0.0 0.00 0.00 0.00 41 1014.0
20260505150302 22 3.2 0.0 0.00 0.00 0.00 41 1014.0
20260505140301 26 240 8.0 0.0 0.00 0.00 0.00 32 1014.0
20260505130302 25 8.0 0.0 0.00 0.00 0.00 34 1014.0
20260505124802 23 180 4.8 0.0 0.00 0.00 0.00 36 1014.0
20260505123302 23 180 4.8 0.0 0.00 0.00 0.00 36 1014.0
20260505121802 23 250 11.3 0.0 0.00 0.00 0.00 39 1014.0
20260505120305 25 4.8 0.0 0.00 0.00 0.00 36 1015.0
20260505114809 25 4.8 0.0 0.00 0.00 0.00 36 1015.0
20260505113332 25 4.8 0.0 0.00 0.00 0.00 36 1015.0
20260505111802 23 250 9.7 0.0 0.00 0.00 0.00 39 1015.0
20260505110302 23 250 9.7 0.0 0.00 0.00 0.00 39 1015.0
20260505101803 22 4.8 0.0 0.00 0.00 0.00 38 1015.0
20260505100302 22 4.8 0.0 0.00 0.00 0.00 38 1015.0
20260505094803 22 8.0 0.0 0.00 0.00 0.00 41 1015.0
20260505093302 22 8.0 0.0 0.00 0.00 0.00 41 1015.0